Date,TemperatureHighF,TemperatureAvgF,TemperatureLowF,DewpointHighF,DewpointAvgF,DewpointLowF,HumidityHigh,HumidityAvg,HumidityLow,PressureMaxIn,PressureMinIn,WindSpeedMaxMPH,WindSpeedAvgMPH,GustSpeedMaxMPH,PrecipitationSumIn
2013-2-1,37.8,25.2,15.8,45.9,37.3,34.3,38,27,23,30.33,29.89,21,6,30,0.00
2013-2-2,38.3,26.8,15.6,35.8,34.5,33.3,27,25,24,30.33,30.01,11,2,21,0.00
2013-2-3,41.5,33.1,26.2,35.8,34.8,33.6,27,26,25,30.03,29.87,17,5,29,0.06
2013-2-4,50.9,34.4,21.2,36.9,34.6,31.6,26,25,23,30.09,29.93,9,2,12,0.00
2013-2-5,53.2,42.2,33.4,41.4,37.4,33.3,30,27,24,29.95,29.86,12,2,14,0.00
2013-2-6,57.0,43.1,31.6,41.9,38.0,36.5,33,28,27,30.16,29.95,9,2,15,0.00
2013-2-7,45.1,40.9,34.3,41.4,38.3,35.4,30,28,26,30.15,29.91,11,2,15,0.25
2013-2-8,47.1,40.0,30.9,44.6,41.0,38.7,34,31,29,30.11,29.84,21,5,23,0.01
2013-2-9,55.2,37.6,25.2,38.7,36.4,35.2,29,27,26,30.29,30.09,7,2,12,0.00
2013-2-10,51.1,41.3,32.2,37.9,35.0,33.1,29,26,24,30.28,30.03,22,3,26,0.44
2013-2-11,56.8,49.5,41.4,46.6,42.9,37.9,37,34,29,30.05,29.91,13,2,22,0.04
2013-2-12,50.0,41.4,32.7,41.5,39.8,37.8,32,30,27,30.07,29.84,8,1,9,0.19
2013-2-13,51.6,39.6,33.1,43.0,41.1,39.4,32,31,30,29.84,29.56,17,4,24,0.11
2013-2-14,51.6,37.4,28.0,40.6,39.1,36.5,30,29,27,30.00,29.85,10,2,15,0.00
2013-2-15,55.4,37.4,25.3,40.5,38.5,35.4,29,28,26,30.06,29.90,15,2,20,0.00
2013-2-16,31.6,26.9,19.8,38.7,35.3,32.0,29,26,23,29.99,29.82,21,5,27,0.00
2013-2-17,32.4,23.3,17.6,32.0,29.0,28.2,23,21,20,30.25,29.99,23,6,32,0.00
2013-2-18,53.2,33.4,16.9,36.7,31.0,27.0,28,22,19,30.35,30.08,11,2,14,0.00
2013-2-19,48.6,39.3,31.5,40.1,36.2,33.1,29,26,24,30.09,29.81,22,6,28,0.08
2013-2-20,46.0,33.7,24.6,34.5,32.6,30.9,25,23,21,30.11,30.00,11,2,17,0.00
2013-2-21,58.6,38.5,19.8,35.1,32.8,29.5,25,23,21,30.18,30.01,11,2,12,0.30
2013-2-22,42.6,38.0,34.9,41.9,37.6,34.5,33,27,25,30.16,29.99,12,5,15,0.24
2013-2-23,54.0,45.1,37.6,41.4,39.5,37.8,32,30,28,29.99,29.75,8,1,11,0.14
2013-2-24,54.1,41.5,30.0,41.2,38.0,35.6,32,29,26,29.99,29.79,15,2,16,0.00
2013-2-25,46.2,36.0,27.1,36.5,34.4,32.2,27,25,22,30.04,29.92,18,4,19,0.00
2013-2-26,49.6,39.2,32.5,42.6,38.5,35.6,32,28,26,29.92,29.46,21,5,25,0.80
2013-2-27,54.3,41.9,34.2,38.8,37.5,34.3,29,27,25,29.73,29.59,16,4,22,0.00
2013-2-28,37.9,32.6,28.6,38.1,36.2,34.5,28,26,25,29.88,29.65,14,5,20,0.00